![]() |
EMODnet Physics ERDDAP
Easier access to scientific data |
log in|
Brought to you by EMODnet Physics |
| Dataset Title: | NDBC - Collection of dew point temperature (DEWT) TimeSeries - IN SITU MultiPointTimeSeriesObservation
|
| Institution: | NDBC (Dataset ID: TS_DEWT_NDBC) |
| Information: | Summary
| License
| FGDC
| ISO 19115
| Metadata
| Background
| Subset
| Data Access Form
| Make a graph
|
| Name | Last modified | Size | Description | |
|---|---|---|---|---|
| Parent Directory | - | - | ||
| 45170_TS_DEWT_042015.nc | 26-Dec-2024 20:10 | 430580 | ||
| 45170_TS_DEWT_042017.nc | 26-Dec-2024 20:16 | 428703 | ||
| 45170_TS_DEWT_042019.nc | 26-Dec-2024 20:23 | 429068 | ||
| 45170_TS_DEWT_052015.nc | 26-Dec-2024 20:10 | 429136 | ||
| 45170_TS_DEWT_052016.nc | 26-Dec-2024 20:13 | 430242 | ||
| 45170_TS_DEWT_052017.nc | 26-Dec-2024 20:17 | 423841 | ||
| 45170_TS_DEWT_052018.nc | 26-Dec-2024 20:20 | 427133 | ||
| 45170_TS_DEWT_052019.nc | 26-Dec-2024 20:23 | 429436 | ||
| 45170_TS_DEWT_052022.nc | 26-Dec-2024 20:28 | 429648 | ||
| 45170_TS_DEWT_052023.nc | 26-Dec-2024 20:30 | 429705 | ||
| 45170_TS_DEWT_062013.nc | 26-Dec-2024 20:05 | 430590 | ||
| 45170_TS_DEWT_062014.nc | 26-Dec-2024 20:08 | 429844 | ||
| 45170_TS_DEWT_062015.nc | 26-Dec-2024 20:11 | 428230 | ||
| 45170_TS_DEWT_062016.nc | 26-Dec-2024 20:14 | 418857 | ||
| 45170_TS_DEWT_062017.nc | 26-Dec-2024 20:17 | 429539 | ||
| 45170_TS_DEWT_062018.nc | 26-Dec-2024 20:20 | 429437 | ||
| 45170_TS_DEWT_062019.nc | 26-Dec-2024 20:24 | 429901 | ||
| 45170_TS_DEWT_062020.nc | 26-Dec-2024 20:26 | 428456 | ||
| 45170_TS_DEWT_062022.nc | 26-Dec-2024 20:28 | 429700 | ||
| 45170_TS_DEWT_062023.nc | 26-Dec-2024 20:30 | 428167 | ||
| 45170_TS_DEWT_062025.nc | 17-Jul-2025 04:12 | 428876 | ||
| 45170_TS_DEWT_072014.nc | 26-Dec-2024 20:08 | 429639 | ||
| 45170_TS_DEWT_072015.nc | 26-Dec-2024 20:11 | 431363 | ||
| 45170_TS_DEWT_072016.nc | 26-Dec-2024 20:14 | 429918 | ||
| 45170_TS_DEWT_072017.nc | 26-Dec-2024 20:18 | 430752 | ||
| 45170_TS_DEWT_072018.nc | 26-Dec-2024 20:21 | 430124 | ||
| 45170_TS_DEWT_072019.nc | 26-Dec-2024 20:24 | 429812 | ||
| 45170_TS_DEWT_072020.nc | 26-Dec-2024 20:26 | 597124 | ||
| 45170_TS_DEWT_072021.nc | 26-Dec-2024 20:27 | 1143700 | ||
| 45170_TS_DEWT_072022.nc | 26-Dec-2024 20:29 | 1143308 | ||
| 45170_TS_DEWT_072023.nc | 26-Dec-2024 20:31 | 916369 | ||
| 45170_TS_DEWT_072025.nc | 01-Aug-2025 04:53 | 917061 | ||
| 45170_TS_DEWT_082014.nc | 26-Dec-2024 20:09 | 917634 | ||
| 45170_TS_DEWT_082015.nc | 26-Dec-2024 20:12 | 917695 | ||
| 45170_TS_DEWT_082016.nc | 26-Dec-2024 20:15 | 420792 | ||
| 45170_TS_DEWT_082017.nc | 26-Dec-2024 20:18 | 2931928 | ||
| 45170_TS_DEWT_082018.nc | 26-Dec-2024 20:21 | 905388 | ||
| 45170_TS_DEWT_082019.nc | 26-Dec-2024 20:24 | 1143390 | ||
| 45170_TS_DEWT_082020.nc | 26-Dec-2024 20:26 | 1144483 | ||
| 45170_TS_DEWT_082021.nc | 26-Dec-2024 20:27 | 3067780 | ||
| 45170_TS_DEWT_082022.nc | 26-Dec-2024 20:29 | 994397 | ||
| 45170_TS_DEWT_082023.nc | 26-Dec-2024 20:31 | 994835 | ||
| 45170_TS_DEWT_082025.nc | 30-Aug-2025 04:51 | 996120 | ||
| 45170_TS_DEWT_092014.nc | 26-Dec-2024 20:09 | 1144652 | ||
| 45170_TS_DEWT_092015.nc | 26-Dec-2024 20:12 | 1143268 | ||
| 45170_TS_DEWT_092016.nc | 26-Dec-2024 20:15 | 997283 | ||
| 45170_TS_DEWT_092017.nc | 26-Dec-2024 20:18 | 995818 | ||
| 45170_TS_DEWT_092018.nc | 26-Dec-2024 20:22 | 994721 | ||
| 45170_TS_DEWT_092019.nc | 26-Dec-2024 20:25 | 995659 | ||
| 45170_TS_DEWT_092021.nc | 26-Dec-2024 20:28 | 996092 | ||
| 45170_TS_DEWT_092022.nc | 26-Dec-2024 20:29 | 1143131 | ||
| 45170_TS_DEWT_092025.nc | 15-Nov-2025 09:58 | 1143562 | ||
| 45170_TS_DEWT_102014.nc | 26-Dec-2024 20:10 | 1144737 | ||
| 45170_TS_DEWT_102015.nc | 26-Dec-2024 20:13 | 1143637 | ||
| 45170_TS_DEWT_102016.nc | 26-Dec-2024 20:16 | 1143686 | ||
| 45170_TS_DEWT_102017.nc | 26-Dec-2024 20:19 | 995297 | ||
| 45170_TS_DEWT_102018.nc | 26-Dec-2024 20:22 | 994580 | ||
| 45170_TS_DEWT_102019.nc | 26-Dec-2024 20:25 | 995554 | ||
| 45170_TS_DEWT_102022.nc | 26-Dec-2024 20:30 | 995566 | ||
| 45170_TS_DEWT_112015.nc | 26-Dec-2024 20:13 | 1143733 | ||
| 45170_TS_DEWT_112017.nc | 26-Dec-2024 20:19 | 996743 | ||
| 45170_TS_DEWT_112018.nc | 26-Dec-2024 20:22 | 994936 | ||
| 45170_TS_DEWT_112019.nc | 26-Dec-2024 20:25 | 995430 | ||
| 45170_TS_DEWT_112022.nc | 26-Dec-2024 20:30 | 994120 | ||